SCP
0 0 0 0 0 0 0 0 0 0 0 0 0 0 0 0 0 0 0 0 0 0 0 0 0 0 0 0 0 0 0 0 0 0 0 0 0 0 0 0 0 0 0
0 0 0 0 0 0 0 0 0 0 0 0 0 0 0 0 0 0 0 0 0 0 0 0 0 0 0 0 0 0 0 0 0 0 0 0 0 0 0 0 0 0 0
0 0 0 0 0 0 0 0 0 0 0 0 0 0 0 0 0 0 0 0 0 0 0 0 0 0 0 0 0 0 0 0 0 0 0 0 0 0 0 0 0 0 0
0 0 0 0 0 0 0 0 0 0 0 0 0 0 0 0 0 0 0 0 0 0 0 0 0 0 0 0 0 0 0 0 0 0 0 0 0 0 0 0 0 0 0
0 0 0 0 0 0 0 0 0 0 0 0 0 0 0 0 0 0 0 0 0 0 0 0 0 0 0 0 0 0 0 0 0 0 0 0 0 0 0 0 0 0 0
0 0 0 0 0 0 0 0 0 0 0 0 0 0 0 0 0 0 0 0 0 0 0 0 0 0 0 0 0 0 0 0 0 0 0 0 0 0 0 0 0 0 0
0 0 0 0 0 0 0 0 0 0 0 0 0 0 0 0 0 0 0 0 0 0 0 0 0 0 0 0 0 0 0 0 0 0 0 0 0 0 0 0 0 0 0
0 0 0 0 0 0 0 0 0 0 0 0 0 0 0 0 0 0 0 0 0 0 0 0 0 0 0 0 0 0 0 0 0 0 0 0 0 0 0 0 0 0 0
0 0 0 0 0 0 0 0 0 0 0 0 0 0 0 0 0 0 0 0 0 0 0 0 0 0 0 0 0 0 0 0 0 0 0 0 0 0 0 0 0 0 0
0 0 0 0 0 0 0 0 0 0 0 0 0 0 0 0 0 0 0 0 0 0 0 0 0 0 0 0 0 0 0 0 0 0 0 0 0 0 0 0 0 0 0
0 0 0 0 0 0 0 0 0 0 0 0 0 0 0 0 0 0 0 0 0 0 0 0 0 0 0 0 0 0 0 0 0 0 0 0 0 0 0 0 0 0 0
0 0 0 0 0 0 0 0 0 0 0 0 0 0 0 0 0 0 0 0 0 0 0 0 0 0 0 0 0 0 0 0 0 0 0 0 0 0 0 0 0 0 0
0 0 0 0 0 0 0 0 0 0 0 0 0 0 0 0 0 0 0 0 0 0 0 0 0 0 0 0 0 0 0 0 0 0 0 0 0 0 0 0 0 0 0
0 0 0 0 0 0 0 0 0 0 0 0 0 0 0 0 0 0 0 0 0 0 0 0 0 0 0 0 0 0 0 0 0 0 0 0 0 0 0 0 0 0 0
0 0 0 0 0 0 0 0 0 0 0 0 0 0 0 0 0 0 0 0 0 0 0 0 0 0 0 0 0 0 0 0 0 0 0 0 0 0 0 0 0 0 0
0 0 0 0 0 0 0 0 0 0 0 0 0 0 0 0 0 0 0 0 0 0 0 0 0 0 0 0 0 0 0 0 0 0 0 0 0 0 0 0 0 0 0
0 0 0 0 0 0 0 0 0 0 0 0 0 0 0 0 0 0 0 0 0 0 0 0 0 0 0 0 0 0 0 0 0 0 0 0 0 0 0 0 0 0 0
0 0 0 0 0 0 0 0 0 0 0 0 0 0 0 0 0 0 0 0 0 0 0 0 0 0 0 0 0 0 0 0 0 0 0 0 0 0 0 0 0 0 0
0 0 0 0 0 0 0 0 0 0 0 0 0 0 0 0 0 0 0 0 0 0 0 0 0 0 0 0 0 0 0 0 0 0 0 0 0 0 0 0 0 0 0
0 0 0 0 0 0 0 0 0 0 0 0 0 0 0 0 0 0 0 0 0 0 0 0 0 0 0 0 0 0 0 0 0 0 0 0 0 0 0 0 0 0 0
0 0 0 0 0 0 0 0 0 0 0 0 0 0 0 0 0 0 0 0 0 0 0 0 0 0 0 0 0 0 0 0 0 0 0 0 0 0 0 0 0 0 0
0 0 0 0 0 0 0 0 0 0 0 0 0 0 0 0 0 0 0 0 0 0 0 0 0 0 0 0 0 0 0 0 0 0 0 0 0 0 0 0 0 0 0
0 0 0 0 0 0 0 0 0 0 0 0 0 0 0 0 0 0 0 0 0 0 0 0 0 0 0 0 0 0 0 0 0 0 0 0 0 0 0 0 0 0 0
0 0 0 0 0 0 0 0 0 0 0 0 0 0 0 0 0 0 0 0 0 0 0 0 0 0 0 0 0 0 0 0 0 0 0 0 0 0 0 0 0 0 0
0 0 0 0 0 0 0 0 0 0 0 0 0 0 0 0 0 0 0 0 0 0 0 0 0 0 0 0 0 0 0 0 0 0 0 0 0 0 0 0 0 0 0
0 0 0 0 0 0 0 0 0 0 0 0 0 0 0 0 0 0 0 0 0 0 0 0 0 0 0 0 0 0 0 0 0 0 0 0 0 0 0 0 0 0 0
Wind_Speed
1 1 1 0 0 0 0 1 1 1 1 1 1 2 2 1 1 1 1 3 3 4 5 6 6 6 6 5 5 5 4 5 5 5 4 5 5 5 5 6 6 6 6
1 1 1 0 0 0 1 1 1 1 1 1 2 2 2 2 1 1 1 2 3 4 5 6 6 6 6 6 5 5 5 5 6 6 5 5 6 6 6 7 7 7 7
1 1 1 1 1 0 1 1 1 1 1 1 2 2 2 2 2 2 2 2 2 4 5 5 6 6 6 6 6 6 6 6 6 6 7 7 7 7 7 7 8 8 8
0 1 1 0 0 0 1 1 0 0 1 1 2 2 2 2 3 3 2 2 2 2 2 4 5 6 7 7 7 6 6 6 7 7 7 7 7 8 8 8 8 9 9
0 1 1 0 0 0 1 1 0 0 1 1 2 2 3 3 3 3 3 2 1 1 1 2 4 6 7 7 7 7 7 7 7 8 8 8 8 9 9 9 9 10 10
1 1 1 0 1 0 1 0 0 1 1 1 3 3 3 3 3 3 3 2 1 2 1 2 2 3 6 7 7 7 8 8 8 8 9 9 10 10 10 10 11 11 11
1 1 0 0 0 0 1 1 0 1 1 1 1 3 3 3 2 2 1 1 1 2 2 2 1 2 2 6 7 8 8 8 9 9 9 10 11 11 11 12 12 11 11
0 0 0 1 0 0 0 0 0 0 1 1 0 1 2 3 2 2 1 1 1 1 2 2 2 2 2 1 4 7 8 9 10 10 11 11 12 12 13 12 12 12 12
0 0 0 1 1 1 1 1 1 1 1 1 1 1 1 2 3 2 2 2 1 1 2 2 2 2 2 1 1 4 8 10 11 12 12 13 13 13 13 13 14 14 14
0 0 0 0 1 1 1 1 0 1 1 1 2 1 1 1 1 3 3 2 2 2 2 3 3 2 2 1 2 5 7 9 10 11 12 13 13 13 13 13 14 14 15
0 0 0 1 0 0 1 1 1 1 1 1 1 2 2 2 2 2 4 3 3 2 2 3 2 2 2 2 1 4 7 8 10 11 13 14 14 14 15 14 14 14 14
0 0 0 1 1 0 1 1 2 2 2 2 2 1 1 2 2 2 3 4 4 4 3 2 2 2 2 2 3 6 8 9 10 11 12 13 14 14 15 15 15 15 15
0 0 1 0 0 1 1 1 1 2 2 2 2 2 2 2 2 2 3 4 5 4 3 2 2 1 2 2 3 8 7 9 10 11 12 13 13 13 14 15 15 15 15
1 0 0 1 1 1 1 1 1 2 2 2 3 3 2 3 2 2 2 3 4 4 3 3 2 2 2 2 5 8 6 10 11 11 12 12 12 13 13 14 14 14 14
1 0 1 1 1 1 1 2 1 2 2 2 3 3 2 2 2 2 2 2 3 5 5 3 2 3 3 3 6 5 4 10 11 11 12 12 12 13 13 13 13 14 14
0 1 1 1 1 1 2 2 2 2 2 2 2 3 3 2 2 2 2 3 3 4 5 3 3 4 5 5 8 5 5 11 11 11 12 12 12 13 13 12 12 12 12
1 1 1 1 1 1 2 1 2 2 2 2 2 2 3 3 2 2 2 2 3 3 6 5 4 4 5 5 5 4 5 5 5 10 12 12 12 13 13 12 12 12 12
1 1 1 1 1 1 1 2 2 2 2 2 2 2 3 3 3 3 2 3 3 3 4 7 5 4 5 5 5 5 5 5 4 9 11 12 11 12 12 12 12 12 12
0 0 0 1 1 1 1 2 2 2 2 2 2 2 3 3 3 3 3 3 3 4 4 5 5 4 4 5 5 5 5 4 5 7 9 11 11 12 12 12 12 12 12
0 0 0 0 1 1 1 2 2 2 2 2 2 2 3 3 4 4 3 3 3 3 3 4 4 4 4 4 4 4 5 4 5 6 7 8 10 12 12 13 13 12 12
1 0 0 1 1 1 1 1 2 2 2 2 2 3 3 4 6 4 4 3 3 3 3 4 4 4 4 4 4 4 6 5 5 4 4 5 5 5 6 10 11 12 12
1 0 1 1 1 2 3 4 3 1 2 2 2 2 3 4 6 7 8 7 6 4 4 4 4 5 6 5 5 5 5 6 5 3 4 6 4 5 5 5 10 12 12
0 1 1 1 1 2 3 4 4 1 1 2 2 2 3 3 5 3 6 7 7 9 8 6 5 6 6 5 5 6 6 6 7 5 5 7 4 5 5 7 12 12 12
0 1 1 1 1 2 4 5 5 2 1 2 2 2 2 3 4 4 4 4 4 4 6 5 4 5 6 5 5 6 7 7 7 5 4 6 5 5 6 5 10 12 11
1 1 1 1 1 2 4 4 4 1 1 2 3 2 3 3 6 8 4 4 5 5 7 10 10 9 11 11 9 5 5 5 7 5 3 4 4 5 5 5 6 9 10
1 1 1 1 1 2 4 4 4 1 2 2 2 3 5 5 7 7 4 3 5 5 5 6 7 8 7 8 9 5 4 5 6 5 3 3 3 3 5 3 3 4 5
Wind_Direction
130 118 129 176 218 306 235 241 260 273 278 289 292 290 287 273 276 265 199 227 250 273 282 283 285 287 288 288 288 288 287 287 289 288 287 285 277 275 275 266 261 259 260
117 131 152 163 219 288 279 256 272 290 288 294 305 307 302 290 278 278 230 236 247 264 275 280 279 279 282 285 282 281 283 283 285 284 281 282 281 279 279 275 269 266 262
117 147 169 194 220 260 297 265 269 299 302 307 299 293 293 284 279 277 260 233 234 256 265 270 278 279 279 280 281 280 282 283 284 283 278 275 276 276 277 277 273 270 268
64 148 165 208 290 310 309 273 214 252 287 300 304 299 293 284 272 268 262 250 232 234 252 269 280 285 281 279 280 280 282 285 286 284 280 275 272 272 274 274 274 273 272
30 112 138 178 27 339 310 290 7 235 278 296 290 282 280 276 270 273 269 257 245 233 224 264 280 289 286 281 280 279 279 282 286 288 284 280 277 273 273 274 272 272 272
33 53 99 40 27 351 291 252 282 311 276 284 297 293 277 265 256 252 254 252 250 247 252 258 256 276 287 288 288 288 283 282 285 286 285 282 279 278 275 275 275 273 272
37 31 108 140 59 303 267 234 204 322 321 325 323 309 289 268 246 256 266 256 264 275 269 263 251 253 272 284 292 293 292 291 287 287 287 284 279 277 276 275 274 274 274
19 8 216 162 117 234 264 218 84 249 294 326 296 310 315 315 312 286 274 256 281 299 292 297 290 285 281 269 285 298 304 302 302 296 292 287 282 279 277 278 277 275 274
281 162 54 183 160 194 204 220 198 200 245 286 274 208 256 274 315 292 272 267 287 295 291 291 298 309 300 297 297 310 308 302 299 299 299 297 290 283 280 278 276 275 274
21 70 106 199 180 199 198 222 196 223 213 244 277 277 259 259 270 305 302 292 303 297 305 311 305 296 304 310 312 322 317 313 309 305 303 300 299 294 289 287 285 280 277
37 4 222 52 12 217 195 206 228 243 231 227 246 280 295 300 264 253 281 301 310 300 307 302 298 300 307 296 282 306 318 315 311 308 306 302 298 298 294 290 288 287 285
157 297 21 61 355 295 213 215 214 232 241 244 254 264 263 259 265 266 271 288 294 294 291 280 274 278 286 302 301 316 313 310 308 309 310 308 302 297 298 293 292 289 286
178 246 333 330 293 299 295 257 225 232 235 236 246 260 264 262 273 272 277 288 292 292 283 281 270 280 296 299 301 309 304 308 308 309 310 309 305 300 298 294 291 292 289
203 218 283 292 289 303 306 289 253 243 245 237 251 253 257 263 266 264 264 279 292 290 281 280 294 289 300 296 294 306 303 302 303 306 308 311 310 301 297 297 293 292 293
199 173 262 270 277 292 293 286 262 257 249 243 245 250 258 263 264 261 253 244 259 282 283 274 290 304 306 302 299 295 291 299 302 303 305 307 310 308 300 297 296 295 293
184 220 240 253 270 286 278 282 280 268 264 259 247 247 257 264 265 263 258 255 250 258 274 280 284 298 304 303 305 303 291 300 299 300 301 305 307 307 305 302 300 298 297
210 224 236 250 267 271 269 267 276 285 271 274 280 267 265 266 267 271 269 266 262 259 272 284 290 299 298 299 304 300 297 292 292 299 301 302 304 304 303 300 300 299 298
226 225 231 249 263 274 279 267 266 273 267 270 282 285 281 283 275 273 269 265 263 261 265 282 293 298 296 298 300 302 303 301 297 303 302 304 307 307 306 303 301 299 298
226 249 239 251 265 281 291 284 268 271 270 275 284 281 285 290 284 275 269 269 268 275 269 277 287 291 297 302 303 302 299 298 299 302 302 303 306 308 307 306 302 300 297
268 263 270 269 279 296 302 292 287 282 287 288 287 281 279 279 280 275 273 269 268 272 274 279 285 292 295 303 302 302 303 304 301 301 297 301 304 305 303 302 302 301 296
295 291 312 333 319 295 285 288 293 284 280 289 288 285 284 291 292 291 287 275 272 272 279 281 285 294 296 306 303 299 297 299 294 283 291 294 296 293 294 296 298 298 297
294 305 276 285 304 302 296 300 307 281 284 285 289 298 296 294 301 306 308 306 293 280 275 275 284 287 291 293 296 298 301 305 298 285 292 292 287 284 284 281 294 299 298
305 306 285 283 289 297 299 305 315 321 306 300 296 300 305 308 311 302 305 308 307 302 293 280 276 278 284 288 291 293 293 294 289 290 292 286 280 283 287 292 297 296 299
295 288 299 298 295 296 305 307 316 326 314 298 294 287 286 294 297 303 298 303 299 301 299 295 275 274 281 284 278 280 283 288 286 282 276 279 280 281 290 285 293 294 299
323 305 311 319 316 308 313 312 320 310 298 291 288 294 291 282 299 306 309 302 302 300 305 303 299 299 301 300 296 291 288 290 293 291 267 268 281 295 286 276 286 300 305
292 307 311 304 298 297 306 313 314 296 289 293 303 306 306 309 310 311 304 294 295 297 303 306 306 306 303 302 304 290 283 287 294 293 279 281 284 308 299 278 279 296 299